Tracking 26935 objects as of 5-Feb-2023
HD Live streaming from Space Station
objects crossing your sky now

TEVEL 3

Track TEVEL 3 now!
10-day predictions
TEVEL 3 is classified as:


NORAD ID: 50988
Int'l Code: 2022-002E
Perigee: 510.5 km
Apogee: 522.0 km
Inclination: 97.5 °
Period: 94.8 minutes
Semi major axis: 6887 km
RCS: Unknown
Launch date: January 13, 2022
Source: Israel (ISRA)
Launch site: AIR FORCE EASTERN TEST RANGE (AFETR)

Uplink (MHz): 145.970
Downlink (MHz): 436.400
Beacon (MHz):
Mode: 9600bps BPSK FM
Call sign: T3TYB
Status: Active

Your satellite tracking list
Your tracking list is empty




NASA's NSSDC Master Catalog

Two Line Element Set (TLE):
1 50988U 22002E   23035.27587811  .00012841  00000-0  61701-3 0  9992
2 50988  97.4537 103.6022 0008345 346.2619  86.6356 15.18932970 58543
Source of the keplerian elements: AFSPC